DW3733 Luzzi (cosenza) IT current weather conditions

sailwx.info

Wind from 099 at 0 knots gusting 2

Air temperature 26.1° C
Dewpoint 19.2° C

Last reported at 2015-Jul-28 20:43 UTC.
Time now 2015-Jul-28 21:50 UTC

Location: N 39°27' E 016°16'.
View on Google Maps.

See reports from other nearby stations

  
Tides and Currents Weather Stations Pressure Air Temp Water Temp Dewpoint Dewpoint Depression Visibility Wind Speed Wind Dir Waves Ship Positions
date/time (UTC)wind fromknots sea level pressurealtimeterstation pressurevisibilityair tempwater tempwave heightnotes
2015-Jul-28 20:43 099 0 gusting 2 26.1
2015-Jul-28 20:33 136 1 gusting 2 26.7
2015-Jul-28 20:23 135 1 gusting 2 26.7
2015-Jul-28 20:13 225 1 gusting 4 27.2
2015-Jul-28 20:03 27.2
2015-Jul-28 19:53 225 1 gusting 5 27.2
2015-Jul-28 19:43 236 1 gusting 5 27.2
2015-Jul-28 19:33 110 0 gusting 5 27.2
2015-Jul-28 19:23 150 2 gusting 5 27.2
2015-Jul-28 19:13 180 0 gusting 4 27.8
2015-Jul-28 19:03 168 0 gusting 5 27.8
2015-Jul-28 18:53 175 1 gusting 2 28.3
2015-Jul-28 18:43 191 0 gusting 5 28.9
2015-Jul-28 18:33 190 2 gusting 5 28.9
2015-Jul-28 18:23 178 2 gusting 5 28.9
2015-Jul-28 18:13 208 2 gusting 5 28.9
2015-Jul-28 18:03 045 0 gusting 4 29.4
2015-Jul-28 17:53 146 0 gusting 5 30.0
2015-Jul-28 17:43 225 1 gusting 4 30.0
2015-Jul-28 17:33 325 1 gusting 5 30.6
2015-Jul-28 17:23 30.6
2015-Jul-28 17:13 236 1 gusting 5 31.1
2015-Jul-28 17:03 100 1 gusting 5 31.1
2015-Jul-28 16:53 181 0 gusting 2 31.7
2015-Jul-28 16:43 339 0 gusting 5 31.7
2015-Jul-28 16:33 183 1 gusting 6 31.1
2015-Jul-28 16:23 225 2 gusting 6 31.1
2015-Jul-28 16:13 224 2 gusting 6 31.7
2015-Jul-28 16:03 308 1 gusting 5 31.7
2015-Jul-28 15:53 078 0 gusting 4 31.7
2015-Jul-28 15:43 225 0 gusting 5 32.2
2015-Jul-28 15:33 135 1 gusting 5 32.8
2015-Jul-28 15:23 191 4 gusting 8 32.8
2015-Jul-28 15:13 251 1 gusting 5 32.8
2015-Jul-28 15:03 182 1 gusting 6 32.2
2015-Jul-28 14:53 180 3 gusting 6 32.8
2015-Jul-28 14:43 357 0 gusting 5 33.3
2015-Jul-28 14:33 180 0 gusting 6 32.8
2015-Jul-28 14:23 244 4 gusting 6 32.8
2015-Jul-28 14:13 040 1 gusting 6 33.3
2015-Jul-28 14:03 135 2 gusting 8 33.3
2015-Jul-28 13:53 076 1 gusting 8 33.3
2015-Jul-28 13:43 262 2 gusting 10 33.3
2015-Jul-28 13:33 189 5 gusting 10 33.3
2015-Jul-28 13:23 32.8
2015-Jul-28 13:13 143 5 gusting 11 32.8
2015-Jul-28 13:03 211 3 gusting 8 32.8
2015-Jul-28 12:53 32.8
2015-Jul-28 12:43 315 3 gusting 11 32.8
2015-Jul-28 12:33 055 4 gusting 7 32.8
2015-Jul-28 12:23 163 2 gusting 10 32.8
2015-Jul-28 12:13 077 2 gusting 10 32.8
2015-Jul-28 12:03 225 2 gusting 11 32.8
2015-Jul-28 11:53 272 3 gusting 12 32.8
2015-Jul-28 11:43 322 3 gusting 12 32.8
2015-Jul-28 11:33 201 1 gusting 11 32.8
2015-Jul-28 11:23 166 2 gusting 7 32.8
2015-Jul-28 11:13 226 3 gusting 8 32.8
2015-Jul-28 11:03 171 2 gusting 7 32.8
2015-Jul-28 10:53 315 1 gusting 6 32.8
2015-Jul-28 10:43 240 2 gusting 6 32.8
2015-Jul-28 10:33 32.8
2015-Jul-28 10:23 218 2 gusting 6 32.8
2015-Jul-28 10:13 204 2 gusting 6 32.8
2015-Jul-28 10:03 225 2 gusting 8 32.8
2015-Jul-28 09:53 059 2 gusting 8 32.8
2015-Jul-28 09:43 279 2 gusting 10 32.8
2015-Jul-28 09:33 357 2 gusting 6 32.8
2015-Jul-28 09:23 349 1 gusting 11 33.3
2015-Jul-28 09:13 031 1 gusting 6 33.3
2015-Jul-28 09:03 234 2 gusting 6 33.3
2015-Jul-28 08:53 330 2 gusting 5 33.3
2015-Jul-28 08:43 028 1 gusting 8 32.8
2015-Jul-28 08:33 209 2 gusting 6 32.8
2015-Jul-28 08:23 171 3 gusting 7 32.2
2015-Jul-28 08:13 202 4 gusting 6 31.7
2015-Jul-28 08:03 180 2 gusting 7 31.1
2015-Jul-28 07:53 192 4 gusting 8 31.1
2015-Jul-28 07:43 016 4 gusting 8 30.6
2015-Jul-28 07:33 235 4 gusting 6 30.6
2015-Jul-28 07:23 217 3 gusting 8 30.0
2015-Jul-28 07:13 190 4 gusting 8 30.0
2015-Jul-28 07:03 298 3 gusting 7 29.4
2015-Jul-28 06:53 189 2 gusting 6 28.9
2015-Jul-28 06:43 234 2 gusting 6 28.3
2015-Jul-28 06:33 144 2 gusting 5 27.8
2015-Jul-28 06:23 164 2 gusting 5 27.2
2015-Jul-28 06:13 135 1 gusting 5 26.7
2015-Jul-28 06:03 219 1 gusting 5 26.1
2015-Jul-28 05:53 190 3 gusting 5 25.6
2015-Jul-28 05:43 106 0 gusting 4 25.6
2015-Jul-28 05:33 187 0 gusting 2 25.0
2015-Jul-28 05:23 173 0 gusting 2 24.4
2015-Jul-28 05:13 315 0 gusting 4 23.9
2015-Jul-28 05:03 111 2 gusting 4 23.9
2015-Jul-28 04:53 135 0 gusting 2 23.3
2015-Jul-28 04:43 225 0 gusting 5 23.3
2015-Jul-28 04:33 225 1 gusting 2 22.8
2015-Jul-28 04:23 257 0 gusting 2 22.8
2015-Jul-28 04:13 151 0 gusting 2 22.8
2015-Jul-28 04:03 225 22.8
2015-Jul-28 03:53 092 0 gusting 2 22.8
2015-Jul-28 03:43 137 0 gusting 1 22.2
2015-Jul-28 03:33 270 22.2
2015-Jul-28 03:23 090 0 gusting 2 22.2
2015-Jul-28 03:13 22.8
2015-Jul-28 03:03 135 22.2
2015-Jul-28 02:53 075 0 gusting 0 22.2
2015-Jul-28 02:43 045 0 gusting 2 21.7
2015-Jul-28 02:33 090 0 gusting 2 21.1
2015-Jul-28 02:23 045 0 gusting 1 21.1
2015-Jul-28 02:13 20.6
2015-Jul-28 02:03 090 0 gusting 2 20.6
2015-Jul-28 01:53 090 1 gusting 2 21.1
2015-Jul-28 01:43 090 0 gusting 2 21.1
2015-Jul-28 01:33 116 0 gusting 2 20.6
2015-Jul-28 01:23 090 1 gusting 2 20.6
2015-Jul-28 01:13 090 0 gusting 1 20.6
2015-Jul-28 01:03 090 21.1
2015-Jul-28 00:53 066 0 gusting 2 21.7
2015-Jul-28 00:43 090 0 gusting 2 21.7
2015-Jul-28 00:33 023 2 gusting 4 21.7
2015-Jul-28 00:23 126 1 gusting 2 21.7
2015-Jul-28 00:13 090 0 gusting 2 22.2
2015-Jul-28 00:03 090 0 gusting 2 21.7
2015-Jul-27 23:53 045 1 gusting 4 21.7
2015-Jul-27 23:43 055 0 gusting 2 21.7
2015-Jul-27 23:33 045 0 gusting 2 22.2
2015-Jul-27 23:23 121 0 gusting 1 22.2
2015-Jul-27 23:13 090 0 gusting 2 21.7
2015-Jul-27 23:03 112 1 gusting 2 21.7
2015-Jul-27 22:53 141 1 gusting 2 22.8
2015-Jul-27 22:43 023 0 gusting 2 22.8
2015-Jul-27 22:33 090 1 gusting 2 23.9
2015-Jul-27 22:23 200 0 gusting 1 23.9
2015-Jul-27 22:13 073 0 gusting 2 24.4
2015-Jul-27 22:03 225 1 gusting 2 23.9
2015-Jul-27 21:53 045 0 gusting 2 24.4
2015-Jul-27 21:43 165 0 gusting 2 25.0
2015-Jul-27 21:33 251 1 gusting 2 25.6
2015-Jul-27 21:23 002 1 gusting 4 25.6
2015-Jul-27 21:13 197 1 gusting 5 25.6
2015-Jul-27 21:03 225 1 gusting 5 26.1
2015-Jul-27 20:53 190 1 gusting 4 26.1
2015-Jul-27 20:43 180 26.1
2015-Jul-27 20:33 196 1 gusting 5 26.7
2015-Jul-27 20:23 218 3 gusting 6 26.7
2015-Jul-27 20:13 217 2 gusting 7 26.7
2015-Jul-27 20:03 315 0 gusting 6 26.7
2015-Jul-27 19:53 196 2 gusting 7 26.7
2015-Jul-27 19:43 153 3 gusting 7 26.7
2015-Jul-27 19:33 183 2 gusting 7 26.7
2015-Jul-27 19:23 160 2 gusting 8 26.7
2015-Jul-27 19:13 120 2 gusting 7 26.7
2015-Jul-27 19:03 180 2 gusting 6 27.2
2015-Jul-27 18:53 154 2 gusting 6 27.8
2015-Jul-27 18:43 238 2 gusting 6 27.8
2015-Jul-27 18:33 27.8
2015-Jul-27 18:23 240 2 gusting 6 27.8
2015-Jul-27 18:13 232 3 gusting 6 28.3
2015-Jul-27 18:03 198 1 gusting 6 28.3
2015-Jul-27 17:53 192 1 gusting 6 28.9
2015-Jul-27 17:43 240 2 gusting 5 28.9
2015-Jul-27 17:33 199 2 gusting 6 28.9
2015-Jul-27 17:23 225 3 gusting 8 28.9
2015-Jul-27 17:13 180 5 gusting 8 28.9
2015-Jul-27 17:03 225 5 gusting 10 29.4
2015-Jul-27 16:53 308 2 gusting 8 30.0
2015-Jul-27 16:43 045 1 gusting 8 30.0
2015-Jul-27 16:33 110 3 gusting 7 30.0
2015-Jul-27 16:23 167 4 gusting 11 30.0
2015-Jul-27 16:13 226 2 gusting 10 30.6
2015-Jul-27 16:03 248 2 gusting 8 30.6
2015-Jul-27 15:53 214 4 gusting 8 31.1
2015-Jul-27 15:43 085 4 gusting 8 31.1
2015-Jul-27 15:33 218 1 gusting 6 32.2
2015-Jul-27 15:23 104 2 gusting 6 32.2
2015-Jul-27 15:13 002 2 gusting 6 32.2
2015-Jul-27 15:03 195 2 gusting 6 32.8
2015-Jul-27 14:53 029 2 gusting 7 32.8
2015-Jul-27 14:33 237 2 gusting 6 32.8
2015-Jul-27 14:23 248 1 gusting 6 32.8
2015-Jul-27 14:13 315 2 gusting 8 32.8
2015-Jul-27 14:03 180 0 gusting 10 32.8
2015-Jul-27 13:53 180 2 gusting 6 32.8
2015-Jul-27 13:43 354 2 gusting 11 32.8
2015-Jul-27 13:33 225 3 gusting 10 32.8
2015-Jul-27 13:23 149 2 gusting 7 32.8
2015-Jul-27 13:13 172 2 gusting 11 32.8
2015-Jul-27 13:03 015 2 gusting 6 32.8
2015-Jul-27 12:53 261 4 gusting 7 32.8
2015-Jul-27 12:43 042 1 gusting 8 32.8
2015-Jul-27 12:33 109 4 gusting 8 32.8
2015-Jul-27 12:23 135 2 gusting 8 32.8
2015-Jul-27 12:13 090 4 gusting 11 32.8
2015-Jul-27 12:03 270 2 gusting 8 32.8
2015-Jul-27 11:53 213 4 gusting 8 32.8
2015-Jul-27 11:43 299 4 gusting 11 33.3
2015-Jul-27 11:33 038 2 gusting 6 33.3
2015-Jul-27 11:23 197 3 gusting 6 33.3
2015-Jul-27 11:13 171 1 gusting 7 33.3
2015-Jul-27 11:03 011 1 gusting 8 33.3
2015-Jul-27 10:53 301 1 gusting 7 33.3
2015-Jul-27 10:43 135 2 gusting 7 32.8
2015-Jul-27 10:33 168 2 gusting 7 32.8
2015-Jul-27 10:23 307 2 gusting 6 33.3
2015-Jul-27 10:13 032 1 gusting 6 32.8
2015-Jul-27 10:03 180 2 gusting 6 32.8
2015-Jul-27 09:53 225 2 gusting 6 32.8
2015-Jul-27 09:43 349 2 gusting 11 32.8
2015-Jul-27 09:33 158 2 gusting 6 32.8
2015-Jul-27 09:23 202 1 gusting 11 32.2
2015-Jul-27 09:13 180 4 gusting 8 32.2
2015-Jul-27 09:03 180 2 gusting 8 31.7
2015-Jul-27 08:53 217 2 gusting 11 31.7
2015-Jul-27 08:43 210 6 gusting 11 31.7
2015-Jul-27 08:33 240 3 gusting 10 31.1
2015-Jul-27 08:23 201 5 gusting 10 31.1
2015-Jul-27 08:13 227 4 gusting 7 30.6
2015-Jul-27 08:03 315 4 gusting 11 30.6
2015-Jul-27 07:53 202 3 gusting 6 30.6
2015-Jul-27 07:43 160 2 gusting 7 30.6
2015-Jul-27 07:33 242 4 gusting 7 30.0
2015-Jul-27 07:23 180 4 gusting 8 29.4
2015-Jul-27 07:13 193 6 gusting 10 29.4
2015-Jul-27 07:03 246 4 gusting 10 28.9
2015-Jul-27 06:53 187 2 gusting 8 28.3
2015-Jul-27 06:43 198 2 gusting 8 28.3
2015-Jul-27 06:33 180 3 gusting 8 27.8
2015-Jul-27 06:23 204 2 gusting 6 27.8
2015-Jul-27 06:13 180 1 gusting 6 26.7
2015-Jul-27 06:03 090 1 gusting 4 26.7
2015-Jul-27 05:53 128 0 gusting 1 26.7
2015-Jul-27 05:43 107 0 gusting 2 25.6
2015-Jul-27 05:33 169 1 gusting 2 25.0
2015-Jul-27 05:23 213 0 gusting 2 25.0
2015-Jul-27 05:13 063 0 gusting 4 24.4
2015-Jul-27 05:03 194 1 gusting 4 24.4
2015-Jul-27 04:53 225 1 gusting 2 23.9
2015-Jul-27 04:43 163 0 gusting 1 23.3
2015-Jul-27 04:33 142 0 gusting 2 22.8
2015-Jul-27 04:23 232 0 gusting 2 22.8
2015-Jul-27 04:13 151 0 gusting 2 22.2
2015-Jul-27 04:03 090 0 gusting 2 21.7
2015-Jul-27 03:53 090 22.2
2015-Jul-27 03:43 090 0 gusting 2 23.3
2015-Jul-27 03:33 190 0 gusting 2 23.3
2015-Jul-27 03:23 090 1 gusting 2 23.3
2015-Jul-27 03:13 189 0 gusting 2 23.3
2015-Jul-27 03:03 135 0 gusting 2 23.3
2015-Jul-27 02:53 159 0 gusting 1 23.3
2015-Jul-27 02:43 131 0 gusting 1 23.3
2015-Jul-27 02:33 313 0 gusting 2 23.3
2015-Jul-27 02:23 166 0 gusting 2 23.3
2015-Jul-27 02:13 154 0 gusting 2 23.3
2015-Jul-27 02:03 090 0 gusting 2 23.3
2015-Jul-27 01:53 108 0 gusting 1 23.3
2015-Jul-27 01:43 135 0 gusting 1 23.9
2015-Jul-27 01:33 192 0 gusting 2 23.9
2015-Jul-27 01:23 135 0 gusting 2 23.9
2015-Jul-27 01:13 255 0 gusting 2 23.9
2015-Jul-27 01:03 135 0 gusting 1 23.9
2015-Jul-27 00:53 207 23.9
2015-Jul-27 00:43 203 24.4
2015-Jul-27 00:33 136 0 gusting 1 24.4
2015-Jul-27 00:23 194 24.4
2015-Jul-27 00:13 152 0 gusting 2 24.4
2015-Jul-27 00:03 180 0 gusting 2 24.4
2015-Jul-26 23:53 135 24.4
2015-Jul-26 23:43 225 2 gusting 4 24.4
2015-Jul-26 23:33 179 0 gusting 2 24.4
2015-Jul-26 23:23 191 0 gusting 4 24.4
2015-Jul-26 23:13 192 0 gusting 2 24.4
2015-Jul-26 23:03 153 0 gusting 2 24.4
2015-Jul-26 22:53 122 0 gusting 1 24.4
2015-Jul-26 22:43 126 0 gusting 1 25.0
2015-Jul-26 22:33 307 25.0
2015-Jul-26 22:23 180 0 gusting 2 25.6
2015-Jul-26 22:13 304 1 gusting 2 25.6
2015-Jul-26 22:03 25.6
2015-Jul-26 21:53 139 1 gusting 4 25.6
2015-Jul-26 21:43 135 0 gusting 5 25.6
2015-Jul-26 21:33 169 0 gusting 1 25.6
2015-Jul-26 21:23 117 0 gusting 2 25.6
2015-Jul-26 21:13 220 0 gusting 2 26.1
2015-Jul-26 21:03 26.1